Погода в Миндане

Узбекистан     40°13′45″N   71°33′16″E
темп.,
°C
ветер,
м/с
пор.,
м/с
влажн.,
%
обл.,
%
осадки,
мм/ч
давл.,
гПа
погр.,
м
27 февраля, сб
сб2723:00−3вюв12390 0.0 103139
02:00−4ююв114320 0.0 103026
05:00−4ююв014452 0.0 103021
08:00−3св1139100 0.0 1030153
11:00−1ссв1134100 0.0 1028703
14:00+1ссв1127100 0.0 1028825
17:00+2всв2229100 0.1 1031550
20:00−1в234169 0.0 103632
28 февраля, вс
вс2823:00−2юв114834 0.0 103623
02:00−3св11530 0.0 103521
05:00−3вюв11540 0.0 103321
08:00−1вюв11440 0.0 1031103
11:00+3св22340 0.0 1026643
14:00+5всв22290 0.0 1022892
17:00+5вюв12300 0.0 1023678
20:00+2юв11480 0.0 102622
1 марта, пн
пн123:00+2юв23460 0.0 102622
02:000ююв11470 0.0 102622
05:00−1зюз01497 0.0 102622
08:00+2всв114251 0.0 102622
11:00+6св123044 0.0 1023430
14:00+9св212545 0.0 1021697
17:00+10всв112422 0.0 1021618
20:00+5вюв00390 0.0 102622
2 марта, вт
вт223:00+4в11400 0.0 102722
02:00+2всв014333 0.0 102722
05:00+2в014467 0.0 102622
08:00+4ссв0144100 0.0 102622
11:00+9св2230100 0.0 1023318
14:00+12ссв1124100 0.0 1021669
17:00+12с1125100 0.0 1021426
20:00+8всв1236100 0.0 102322
3 марта, ср
ср323:00+6всв0040100 0.0 102322
02:00+5зсз0141100 0.0 102222
05:00+5зюз1241100 0.0 102222
08:00+7зсз1140100 0.0 102222
11:00+10с2229100 0.0 1019790
14:00+12ссв012889 0.0 10171200
17:00+12з122795 0.0 10171285
20:00+9з1243100 0.0 102026